sat.trackr.live / text

‹ back to catalog

STARLINK-4415

NORAD 53465 · 2022-099A

PAYLOAD ACTIVE UNKNOWN

§ Identity

Operator
Country
US
Launch date
2022-08-12
Launch site
AFWTR
Launch vehicle
Mass (kg)
RCS (m²)

Purposes: comms

External: N2YO · Heavens-Above · Gunter

§ Orbital elements

Epoch: 2026-09-20T03:09:34.096032Z

Period
93.91 min
Inclination
97.2855°
Eccentricity
0.0000808
Mean motion
15.33448142 rev/d
Perigee alt
465.0 km
Apogee alt
466.1 km
Semi-major
6,843.7 km
B*
3.1636e-5
RAAN
20.7341°
Arg perigee
88.0652°
Mean anomaly
272.0683°
Rev number
22,547

§ Raw data

STARLINK-44151 53465U 22099A   26263.13164463  .00000946  00000+0  31636-4 0  99932 53465  97.2855  20.7341 0000808  88.0652 272.0683 15.33448142225476

JSON: /api/v1/satellites/53465 · /tle

For live sub-satellite position, see the globe view (requires WebGL).

§ Visibility from observer

Set your observer location to see the next 7 days of passes ≥ 10°. The values pass through the URL so the page stays shareable.

No JS? Fill the form by hand. The geolocation button needs JavaScript.